Home   Weather   Modesto   Past weeks
Flag for USA

Past Weather in Modesto, California, USA — Yesterday and Last 2 Weeks

Now
67 °F

Clear.


Feels Like: 67 °F
Forecast: 89 / 58 °F
Wind: 8 mph from North

Location: Modesto City-County-Sham Field

Current Time: Aug 19, 2019 at 1:33:40 am

Latest Report: Aug 19, 2019 at 12:53 am


Visibility: 10 mi

Pressure: 29.86 "Hg

Humidity: 71%

Dew Point: 57 °F

Location of ModestoLocation

Past Weather in Modesto — Graph

°F

Modesto Temperature Yesterday

Maximum temperature yesterday: 87 °F (at 3:53 pm)
Minimum temperature yesterday: 60 °F (at 6:53 am)
Average temperature yesterday: 74 °F

High & Low Weather Summary for the Past Weeks

 TemperatureHumidityPressure
High104 °F (Aug 15, 3:53 pm)84% (Aug 10, 5:53 am)30.03 "Hg (Aug 10, 5:53 am)
Low60 °F (Aug 18, 6:53 am)15% (Aug 16, 2:53 pm)29.68 "Hg (Aug 17, 6:53 pm)
Average80 °F43%29.87 "Hg
* Reported Aug 3 11:53 pm — Aug 18 11:53 pm, Modesto. Weather by CustomWeather, © 2019

Note: Actual official high and low records may vary slightly from our data, if they occured in-between our weather recording intervals... More about our weather records

Advertising

Modesto Weather History for the Previous 24 Hours

Scroll right to see more
 ConditionsComfort  
Time TempWeatherWind HumidityBarometerVisibility
11:53 pm
Sun, Aug 18
69 °FClear.9 mph68%29.85 "Hg10 mi
10:53 pm72 °FClear.8 mph61%29.84 "Hg10 mi
9:53 pm74 °FClear.13 mph57%29.83 "Hg10 mi
8:53 pm79 °FClear.12 mph48%29.80 "Hg10 mi
7:53 pm83 °FClear.5 mph40%29.78 "Hg10 mi
6:53 pm87 °FSunny.3 mph32%29.78 "Hg10 mi
5:53 pm87 °FSunny.6 mph30%29.78 "Hg10 mi
4:53 pm87 °FSunny.5 mph31%29.78 "Hg10 mi
3:53 pm87 °FSunny.8 mph31%29.79 "Hg10 mi
2:53 pm86 °FSunny.5 mph31%29.81 "Hg10 mi
1:53 pm85 °FSunny.5 mph32%29.83 "Hg10 mi
12:53 pm82 °FSunny.5 mph35%29.84 "Hg10 mi
11:53 am77 °FSunny.No wind44%29.85 "Hg10 mi
10:53 am74 °FSunny.5 mph48%29.85 "Hg10 mi
9:53 am70 °FSunny.3 mph57%29.85 "Hg10 mi
8:53 am67 °FSunny.7 mph63%29.84 "Hg10 mi
7:53 am63 °FSunny.7 mph75%29.83 "Hg10 mi
6:53 am60 °FSunny.7 mph83%29.80 "Hg10 mi
5:53 am61 °FClear.7 mph81%29.79 "Hg10 mi
4:53 am61 °FClear.7 mph78%29.78 "Hg10 mi
3:53 am61 °FClear.6 mph78%29.77 "Hg10 mi
2:53 am63 °FClear.8 mph73%29.76 "Hg10 mi
1:53 am65 °FClear.5 mph68%29.75 "Hg10 mi
Weather by CustomWeather, © 2019

See weather overview